{"data":{"norad_id":62413,"epoch":"2026-09-21T22:00:03.000096Z","epoch_age_seconds":51995,"freshness":"FRESH","line1":"1 62413U 24249E   26264.91670139 -.00004135  00000+0 -28779-4 0  9994","line2":"2 62413  43.0006  64.5774 0001378 275.0994 143.6773 15.70812782  5994","mean_motion":15.70812782,"eccentricity":0.0001378,"inclination_deg":43.0006,"raan_deg":64.5774,"arg_perigee_deg":275.0994,"mean_anomaly_deg":143.6773,"bstar":-2.8779e-5,"rev_number":599,"period_min":91.672286888738,"perigee_km":355.64481381153,"apogee_km":357.50089984807,"semimajor_km":6734.7098568298,"source":"CELESTRAK","updated_at":"2026-09-22T09:00:49.576027Z"}}